This demonstration page uses our WeatherBlox Daily Observations layout. Learn more.

Left ArrowRight Arrow

Hourly Observations for April 3, 2018

Temp ( °F °C ) Dew Point ( °F °C ) Humidity (%) Winds ( mph kmh ) Pressure ( in mb ) Visibility ( mi km ) Precip ( " mm )
12:33 am 00:33 Cloudy 44 6.7 39 3.9 83 83 E 12 19 30.21 1023 10 16 0.00 0.00
12:59 am 00:59 Cloudy 44 6.7 39 3.9 83 83 E 9 15 30.19 1022 10 16 0.00 0.00
1:59 am 01:59 Cloudy 44 6.7 39 3.9 83 83 E 12 19 30.17 1022 10 16 0.00 0.00
2:59 am 02:59 Cloudy 45 7.2 40 4.4 83 83 E 9 15 30.15 1021 10 16 0.00 0.00
3:11 am 03:11 Cloudy 45 7.2 40 4.4 83 83 E 10 17 30.15 1021 9 14 0.00 0.00
3:59 am 03:59 Cloudy 45 7.2 40 4.4 83 83 ENE 12 19 30.14 1021 9 14 0.00 0.00
4:59 am 04:59 Cloudy 46 7.8 41 5 83 83 ENE 9 15 30.13 1020 9 14 0.00 0.00
5:59 am 05:59 Cloudy 46 7.8 42 5.6 86 86 ENE 9 15 30.13 1020 7 11 0.00 0.00
6:59 am 06:59 Cloudy 46 7.8 42 5.6 86 86 E 8 13 30.12 1020 10 16 0.00 0.00
7:59 am 07:59 Cloudy 47 8.3 43 6.1 86 86 E 7 11 30.12 1020 8 13 0.00 0.00
8:59 am 08:59 Cloudy with Mist and Fog 48 8.9 44 6.7 86 86 Calm 30.13 1020 6 10 0.00 0.00
9:59 am 09:59 Cloudy with Haze 49 9.4 44 6.7 83 83 ENE 3 6 30.11 1020 6 10 0.00 0.00
10:59 am 10:59 Cloudy 53 11.7 46 7.8 77 77 Calm 30.10 1019 8 13 0.00 0.00
11:59 am 11:59 Cloudy 55 12.8 46 7.8 72 72 VRB 5 7 30.06 1018 8 13 0.00 0.00
12:39 pm 12:39 Cloudy 55 12.8 47 8.3 74 74 N 6 9 30.06 1018 8 13 0.00 0.00
12:59 pm 12:59 Cloudy 56 13.3 47 8.3 72 72 Calm 30.05 1018 8 13 0.00 0.00
1:59 pm 13:59 Mostly Cloudy 60 15.6 49 9.4 67 67 NW 5 7 30.02 1017 9 14 0.00 0.00
2:06 pm 14:06 Mostly Cloudy 62 16.7 51 10.6 67 67 W 8 13 30.03 1017 9 14 0.00 0.00
2:59 pm 14:59 Mostly Cloudy 64 17.8 53 11.7 68 68 W 9 15 29.99 1016 9 14 0.00 0.00
3:59 pm 15:59 Mostly Cloudy 67 19.4 55 12.8 66 66 WNW 9 15 29.97 1015 9 14 0.00 0.00
4:59 pm 16:59 Mostly Cloudy 65 18.3 52 11.1 63 63 ENE 8 13 29.96 1015 10 16 0.00 0.00
5:59 pm 17:59 Partly Cloudy 60 15.6 50 10 70 70 VRB 5 7 29.96 1015 9 14 0.00 0.00
6:59 pm 18:59 Partly Cloudy 60 15.6 51 10.6 72 72 ESE 3 6 29.96 1015 9 14 0.00 0.00
7:59 pm 19:59 Partly Cloudy 57 13.9 50 10 78 78 E 5 7 29.95 1014 9 14 0.00 0.00
8:59 pm 20:59 Partly Cloudy 57 13.9 51 10.6 81 81 ESE 6 9 29.92 1013 9 14 0.00 0.00
9:59 pm 21:59 Partly Cloudy 60 15.6 52 11.1 75 75 SE 6 9 29.91 1013 9 14 0.00 0.00
10:59 pm 22:59 Partly Cloudy 65 18.3 58 14.4 78 78 SSE 9 15 29.89 1012 10 16 0.00 0.00
11:59 pm 23:59 Partly Cloudy 69 20.6 62 16.7 78 78 S 10 17 29.88 1012 10 16 0.00 0.00

Powered by AerisWeather